DW5216 Colorado Springs CO US current weather conditions

sailwx.info

Wind from 333

Air temperature 12.8° C
Dewpoint 10.8° C

Last reported at 2020-May-29 14:00 UTC.
Time now 2020-May-29 14:41 UTC

Location: N 48°25' W 122°16'.
View on Google Maps.

See reports from other nearby stations

  
Tides and Currents Weather Stations Pressure Air Temp Water Temp Dewpoint Dewpoint Depression Visibility Wind Speed Wind Dir Waves Ship Positions
date/time (UTC)wind fromknots sea level pressurealtimeterstation pressurevisibilityair tempwater tempwave heightnotes
2020-May-29 14:00 333 12.8
2020-May-29 13:45 289 12.8
2020-May-29 13:30 268 12.2
2020-May-29 13:15 038 12.2
2020-May-29 13:00 038 11.7
2020-May-29 12:45 038 11.7
2020-May-29 12:30 038 11.7
2020-May-29 12:15 038 11.7
2020-May-29 12:00 229 12.2
2020-May-29 11:45 229 12.2
2020-May-29 11:30 229 12.8
2020-May-29 11:15 229 12.8
2020-May-29 11:01 229 12.8
2020-May-29 10:46 229 12.8
2020-May-29 10:31 229 12.8
2020-May-29 10:17 229 13.3
2020-May-29 10:02 229 13.3
2020-May-29 09:46 229 13.3
2020-May-29 09:31 229 13.9
2020-May-29 09:16 229 13.9
2020-May-29 09:02 229 14.4
2020-May-29 08:45 229 14.4
2020-May-29 08:31 229 14.4
2020-May-29 08:16 229 14.4
2020-May-29 08:01 229 15.0
2020-May-29 07:45 229 15.0
2020-May-29 07:30 229 15.6
2020-May-29 07:15 229 15.6
2020-May-29 07:00 229 15.6
2020-May-29 06:45 229 15.6
2020-May-29 06:31 229 15.6
2020-May-29 06:15 229 15.6
2020-May-29 06:01 229 15.0
2020-May-29 05:46 229 15.6
2020-May-29 05:31 229 15.6
2020-May-29 05:15 229 16.1
2020-May-29 05:00 229 16.7
2020-May-29 04:45 229 17.2
2020-May-29 04:30 229 17.2
2020-May-29 04:15 229 17.8
2020-May-29 04:00 229 18.3
2020-May-29 03:46 229 18.9
2020-May-29 03:30 229 19.4
2020-May-29 03:16 229 20.0
2020-May-29 03:00 229 20.0
2020-May-29 02:45 229 20.6
2020-May-29 02:30 229 20.6
2020-May-29 02:15 229 21.1
2020-May-29 02:00 229 21.7
2020-May-29 01:46 210 22.8
2020-May-29 01:30 210 23.3
2020-May-29 01:15 210 23.3
2020-May-29 01:00 285 23.9
2020-May-29 00:45 299 23.9
2020-May-29 00:30 299 23.9
2020-May-29 00:17 352 23.9
2020-May-29 00:02 241 23.9
2020-May-28 23:46 244 24.4
2020-May-28 23:31 254 24.4
2020-May-28 23:16 342 24.4
2020-May-28 23:01 240 24.4
2020-May-28 22:47 318 24.4
2020-May-28 22:32 246 23.9
2020-May-28 22:17 253 23.9
2020-May-28 22:01 220 23.9
2020-May-28 21:47 300 24.4
2020-May-28 21:31 266 23.9
2020-May-28 21:16 237 23.3
2020-May-28 21:00 231 23.9
2020-May-28 20:46 235 0 gusting 6 23.9
2020-May-28 20:30 047 23.3
2020-May-28 20:15 225 22.2
2020-May-28 20:00 280 21.7
2020-May-28 19:45 238 21.7
2020-May-28 19:31 240 21.7
2020-May-28 19:15 242 21.7
2020-May-28 19:00 358 21.7
2020-May-28 18:45 021 21.1
2020-May-28 18:30 352 20.6
2020-May-28 18:15 200 20.6
2020-May-28 18:00 024 20.6
2020-May-28 17:45 323 20.0
2020-May-28 17:30 245 19.4
2020-May-28 17:16 275 19.4
2020-May-28 17:01 342 18.3
2020-May-28 16:46 271 18.3
2020-May-28 16:31 012 17.8
2020-May-28 16:16 011 17.8
2020-May-28 16:01 010 17.8
2020-May-28 15:46 335 17.2
2020-May-28 15:30 266 16.7
2020-May-28 15:16 266 15.6
2020-May-28 15:01 259 15.0
2020-May-28 14:46 259 13.9
2020-May-28 14:30 259 13.3
2020-May-28 14:16 259 12.2
2020-May-28 14:00 259 11.1
2020-May-28 13:45 259 10.6
2020-May-28 13:30 259 10.6
2020-May-28 13:15 259 10.6
2020-May-28 13:00 259 10.6
2020-May-28 12:45 259 10.6
2020-May-28 12:30 259 10.6
2020-May-28 12:15 259 10.6
2020-May-28 12:00 259 10.6
2020-May-28 11:45 259 10.6
2020-May-28 11:30 259 10.6
2020-May-28 10:46 259 10.6
2020-May-28 10:32 259 11.1
2020-May-28 10:17 259 11.1
2020-May-28 10:01 259 11.7
2020-May-28 09:46 259 11.7
2020-May-28 09:31 259 11.1
2020-May-28 09:16 259 11.1
2020-May-28 09:01 259 11.7
2020-May-28 08:47 259 11.7
2020-May-28 08:32 259 11.7
2020-May-28 08:16 259 11.7
2020-May-28 08:01 259 11.7
2020-May-28 07:46 259 11.7
2020-May-28 07:31 259 11.7
2020-May-28 07:15 259 12.2
2020-May-28 07:00 259 12.2
2020-May-28 06:45 259 12.2
2020-May-28 06:31 259 12.2
2020-May-28 06:15 259 12.2
2020-May-28 06:00 259 12.8
2020-May-28 05:45 259 12.8
2020-May-28 05:30 259 13.3
2020-May-28 05:15 259 13.3
2020-May-28 05:01 259 13.3
2020-May-28 04:45 259 13.9
2020-May-28 04:30 259 14.4
2020-May-28 04:15 259 15.6
2020-May-28 04:00 259 16.1
2020-May-28 03:46 259 16.7
2020-May-28 03:30 259 17.2
2020-May-28 03:15 235 17.8
2020-May-28 03:00 260 18.3
2020-May-28 02:46 260 18.9
2020-May-28 02:30 260 19.4
2020-May-28 02:15 262 19.4
2020-May-28 02:01 258 20.0
2020-May-28 01:45 259 20.6
2020-May-28 01:30 009 20.6
2020-May-28 01:15 044 20.6
2020-May-28 01:00 210 20.6
2020-May-28 00:45 258 20.6
2020-May-28 00:30 154 20.6
2020-May-28 00:15 250 21.1
2020-May-28 00:00 352 21.1
2020-May-27 23:45 284 21.1
2020-May-27 23:30 234 21.7
2020-May-27 23:16 288 21.7
2020-May-27 23:02 257 21.7
2020-May-27 22:46 289 0 gusting 2 21.7
2020-May-27 22:32 333 21.7
2020-May-27 22:16 245 0 gusting 3 21.1
2020-May-27 22:01 270 21.1
2020-May-27 21:46 287 21.1
2020-May-27 21:31 317 21.7
2020-May-27 21:16 268 21.1
2020-May-27 21:01 252 21.1
2020-May-27 20:46 137 21.1
2020-May-27 20:31 237 20.6
2020-May-27 20:15 328 20.0
2020-May-27 20:00 257 19.4
2020-May-27 19:46 245 18.9
2020-May-27 19:31 241 18.3
2020-May-27 19:16 266 0 gusting 5 18.3
2020-May-27 19:00 277 18.9
2020-May-27 18:45 247 18.3
2020-May-27 18:30 281 18.3
2020-May-27 18:15 035 17.8
2020-May-27 18:00 261 17.8
2020-May-27 17:45 258 17.2
2020-May-27 17:30 210 17.2
2020-May-27 17:15 021 16.7
2020-May-27 17:00 300 16.1
2020-May-27 16:46 356 15.6
2020-May-27 16:32 037 15.0
2020-May-27 16:17 009 13.9
2020-May-27 16:01 029 13.3
2020-May-27 15:46 347 13.3
2020-May-27 15:31 347 12.8
2020-May-27 15:15 347 11.7
2020-May-27 15:00 347 11.1
2020-May-27 14:45 347 10.0
2020-May-27 14:31 347 9.4
2020-May-27 14:15 347 8.3
2020-May-27 14:00 347 7.8